When you browse on this site, cookies collect data to enhance your experience and personalize the content and advertising you see.
Visit our Privacy Policy to learn more. By continuing to use the site, you agree to this use of cookies and data.
  • In Spain
  • List of Countries
  • For 7 days
  • Water Temperature
  • Satellite Maps
  • Weather Map
  • Weather Widgets
  • user-avatar
    Login

    Hourly Weather Uralsk

    Today, 17 June, Monday

    Time Temperature Precipitation Wind Pressure Humidity
    00:00 +15°C° 0 mm 1 mps 750 mmHg 64%
    01:00 +15°C° 0 mm 1 mps 750 mmHg 67%
    02:00 +15°C° 0 mm 2 mps 750 mmHg 69%
    03:00 +15°C° 0 mm 2 mps 750 mmHg 72%
    04:00 +14°C° 0 mm 3 mps 751 mmHg 71%
    05:00 +16°C° 0 mm 3 mps 751 mmHg 70%
    06:00 +17°C° 0 mm 4 mps 751 mmHg 69%
    07:00 +18°C° 0 mm 4 mps 752 mmHg 63%
    08:00 +20°C° 0 mm 4 mps 752 mmHg 56%
    09:00 +21°C° 0 mm 4 mps 752 mmHg 50%
    10:00 +22°C° 0 mm 4 mps 752 mmHg 46%
    11:00 +22°C° 0 mm 4 mps 752 mmHg 42%
    12:00 +24°C° 0 mm 3 mps 752 mmHg 38%
    13:00 +25°C° 0 mm 3 mps 752 mmHg 37%
    14:00 +25°C° 0 mm 3 mps 752 mmHg 36%
    15:00 +25°C° 0 mm 3 mps 752 mmHg 34%
    16:00 +25°C° 0 mm 3 mps 752 mmHg 38%
    17:00 +24°C° 0 mm 3 mps 752 mmHg 43%
    18:00 +24°C° 0 mm 2 mps 752 mmHg 47%
    19:00 +21°C° 0 mm 2 mps 752 mmHg 52%
    20:00 +19°C° 0 mm 2 mps 752 mmHg 58%
    21:00 +17°C° 0 mm 2 mps 752 mmHg 64%
    22:00 +18°C° 0 mm 1 mps 752 mmHg 66%
    23:00 +16°C° 0 mm 1 mps 752 mmHg 67%

    Tomorrow, 18 June, Tuesday

    Time Temperature Precipitation Wind Pressure Humidity
    00:00 +16°C° 0 mm 1 mps 752 mmHg 69%
    01:00 +16°C° 0 mm 1 mps 752 mmHg 70%
    02:00 +16°C° 0 mm 2 mps 752 mmHg 70%
    03:00 +15°C° 0 mm 2 mps 752 mmHg 71%
    04:00 +17°C° 0 mm 2 mps 752 mmHg 68%
    05:00 +18°C° 0 mm 3 mps 752 mmHg 65%
    06:00 +19°C° 0 mm 3 mps 752 mmHg 62%
    07:00 +21°C° 0 mm 3 mps 752 mmHg 57%
    08:00 +24°C° 0 mm 3 mps 752 mmHg 52%
    09:00 +25°C° 0 mm 3 mps 752 mmHg 47%
    10:00 +26°C° 0 mm 3 mps 752 mmHg 45%
    11:00 +26°C° 0 mm 3 mps 752 mmHg 44%
    12:00 +27°C° 0 mm 3 mps 752 mmHg 42%
    13:00 +26°C° 0 mm 3 mps 752 mmHg 43%
    14:00 +26°C° 0 mm 3 mps 751 mmHg 45%
    15:00 +26°C° 0 mm 3 mps 751 mmHg 46%
    16:00 +25°C° 0 mm 2 mps 751 mmHg 49%
    17:00 +25°C° 0 mm 2 mps 751 mmHg 52%
    18:00 +24°C° 0 mm 2 mps 751 mmHg 55%
    19:00 +23°C° 0 mm 2 mps 751 mmHg 57%
    20:00 +21°C° 0 mm 2 mps 751 mmHg 59%
    21:00 +20°C° 0 mm 2 mps 751 mmHg 61%
    22:00 +20°C° 0 mm 2 mps 751 mmHg 63%
    23:00 +19°C° 0 mm 2 mps 751 mmHg 66%

    Day after tomorrow, 19 June, Wednesday

    Time Temperature Precipitation Wind Pressure Humidity
    00:00 +18°C° 0 mm 2 mps 751 mmHg 68%
    01:00 +18°C° 0 mm 2 mps 751 mmHg 68%
    02:00 +19°C° 0 mm 1 mps 750 mmHg 68%
    03:00 +18°C° 0 mm 1 mps 750 mmHg 69%
    04:00 +19°C° 0.1 mm 1 mps 750 mmHg 68%
    05:00 +20°C° 0.1 mm 1 mps 750 mmHg 67%
    06:00 +21°C° 0.1 mm 1 mps 751 mmHg 67%
    07:00 +21°C° 0.2 mm 1 mps 751 mmHg 67%
    08:00 +21°C° 0.2 mm 1 mps 751 mmHg 68%
    09:00 +21°C° 0.2 mm 1 mps 750 mmHg 69%
    10:00 +21°C° 0.4 mm 2 mps 750 mmHg 69%
    11:00 +21°C° 0.4 mm 2 mps 750 mmHg 69%
    12:00 +23°C° 0.4 mm 2 mps 750 mmHg 69%
    13:00 +23°C° 0.3 mm 2 mps 750 mmHg 67%
    14:00 +24°C° 0.3 mm 2 mps 750 mmHg 66%
    15:00 +25°C° 0.3 mm 2 mps 750 mmHg 64%
    16:00 +24°C° 1.1 mm 2 mps 750 mmHg 66%
    17:00 +24°C° 1.1 mm 2 mps 750 mmHg 68%
    18:00 +22°C° 1.1 mm 3 mps 750 mmHg 70%
    19:00 +21°C° 0 mm 2 mps 750 mmHg 75%
    20:00 +19°C° 0 mm 2 mps 750 mmHg 80%
    21:00 +19°C° 0 mm 1 mps 750 mmHg 85%
    22:00 +19°C° 0 mm 1 mps 751 mmHg 86%
    23:00 +18°C° 0 mm 1 mps 751 mmHg 87%

    20 June, Thursday

    Time Temperature Precipitation Wind Pressure Humidity
    00:00 +17°C° 0 mm 2 mps 751 mmHg 87%
    01:00 +16°C° 0 mm 2 mps 751 mmHg 87%
    02:00 +16°C° 0 mm 2 mps 751 mmHg 87%
    03:00 +16°C° 0 mm 2 mps 751 mmHg 87%
    04:00 +17°C° 0 mm 2 mps 752 mmHg 84%
    05:00 +18°C° 0 mm 2 mps 752 mmHg 81%
    06:00 +19°C° 0 mm 3 mps 752 mmHg 78%
    07:00 +20°C° 0 mm 3 mps 752 mmHg 71%
    08:00 +22°C° 0 mm 4 mps 752 mmHg 64%
    09:00 +25°C° 0 mm 4 mps 752 mmHg 58%
    10:00 +26°C° 0 mm 4 mps 752 mmHg 54%
    11:00 +27°C° 0 mm 4 mps 753 mmHg 51%
    12:00 +28°C° 0 mm 4 mps 753 mmHg 47%
    13:00 +28°C° 0 mm 4 mps 752 mmHg 46%
    14:00 +29°C° 0 mm 4 mps 752 mmHg 45%
    15:00 +29°C° 0 mm 4 mps 752 mmHg 45%
    16:00 +28°C° 0 mm 4 mps 752 mmHg 49%
    17:00 +27°C° 0 mm 4 mps 752 mmHg 53%
    18:00 +26°C° 0 mm 4 mps 753 mmHg 57%
    19:00 +25°C° 0 mm 4 mps 753 mmHg 60%
    20:00 +24°C° 0 mm 3 mps 753 mmHg 63%
    21:00 +21°C° 0 mm 3 mps 754 mmHg 66%
    22:00 +20°C° 0 mm 3 mps 754 mmHg 68%
    23:00 +19°C° 0 mm 3 mps 754 mmHg 70%

    21 June, Friday

    Time Temperature Precipitation Wind Pressure Humidity
    00:00 +19°C° 0 mm 3 mps 754 mmHg 72%
    01:00 +18°C° 0 mm 3 mps 754 mmHg 73%
    02:00 +18°C° 0 mm 3 mps 754 mmHg 74%
    03:00 +17°C° 0 mm 3 mps 754 mmHg 74%
    04:00 +18°C° 0 mm 3 mps 755 mmHg 71%
    05:00 +19°C° 0 mm 3 mps 755 mmHg 67%
    06:00 +20°C° 0 mm 3 mps 755 mmHg 64%
    07:00 +22°C° 0 mm 3 mps 755 mmHg 58%
    08:00 +25°C° 0 mm 3 mps 755 mmHg 53%
    09:00 +27°C° 0 mm 4 mps 755 mmHg 47%
    10:00 +28°C° 0 mm 4 mps 755 mmHg 44%
    11:00 +29°C° 0 mm 4 mps 755 mmHg 41%
    12:00 +29°C° 0 mm 4 mps 755 mmHg 38%
    13:00 +30°C° 0 mm 4 mps 755 mmHg 37%
    14:00 +30°C° 0 mm 4 mps 755 mmHg 37%
    15:00 +30°C° 0 mm 4 mps 754 mmHg 36%
    16:00 +29°C° 0 mm 4 mps 754 mmHg 41%
    17:00 +29°C° 0 mm 3 mps 754 mmHg 45%
    18:00 +28°C° 0 mm 3 mps 754 mmHg 50%
    19:00 +27°C° 0 mm 3 mps 755 mmHg 54%
    20:00 +25°C° 0 mm 3 mps 755 mmHg 59%
    21:00 +22°C° 0 mm 3 mps 755 mmHg 63%
    22:00 +21°C° 0 mm 3 mps 755 mmHg 67%
    23:00 +21°C° 0 mm 3 mps 755 mmHg 70%

    22 June, Saturday

    Time Temperature Precipitation Wind Pressure Humidity
    00:00 +20°C° 0 mm 3 mps 755 mmHg 74%
    01:00 +19°C° 0 mm 3 mps 755 mmHg 77%
    02:00 +19°C° 0 mm 3 mps 756 mmHg 79%
    03:00 +18°C° 0 mm 3 mps 756 mmHg 82%
    04:00 +19°C° 0 mm 3 mps 756 mmHg 78%
    05:00 +21°C° 0 mm 3 mps 756 mmHg 75%
    06:00 +22°C° 0 mm 4 mps 757 mmHg 71%
    07:00 +23°C° 0 mm 4 mps 757 mmHg 64%
    08:00 +26°C° 0 mm 4 mps 757 mmHg 57%
    09:00 +28°C° 0 mm 4 mps 757 mmHg 51%
    10:00 +29°C° 0 mm 4 mps 757 mmHg 46%
    11:00 +30°C° 0 mm 4 mps 757 mmHg 42%
    12:00 +30°C° 0 mm 4 mps 757 mmHg 38%
    13:00 +32°C° 0 mm 4 mps 756 mmHg 37%
    14:00 +31°C° 0 mm 3 mps 756 mmHg 36%
    15:00 +31°C° 0 mm 3 mps 756 mmHg 35%
    16:00 +31°C° 0 mm 3 mps 756 mmHg 38%
    17:00 +30°C° 0 mm 3 mps 756 mmHg 42%
    18:00 +30°C° 0 mm 3 mps 756 mmHg 45%
    19:00 +28°C° 0 mm 3 mps 756 mmHg 48%
    20:00 +26°C° 0 mm 3 mps 757 mmHg 51%
    21:00 +24°C° 0 mm 3 mps 757 mmHg 54%
    22:00 +24°C° 0 mm 3 mps 757 mmHg 56%
    23:00 +22°C° 0 mm 3 mps 757 mmHg 59%
    Show more